Simultaneous Nadir Overpasses (SNOs) Predictions

Prediction of SNOs between GOES-16 and LANDSAT-8 Satellite Orbit:

Table of predicted SNOs for the next 14.0 days since TLE Epoch: 8/15/2020
Index Date Time (GOES-16) GOES-16 Lat,Lon LANDSAT-8 Lat,Lon Distance(km) Time Diff (sec)
1 08/15/2020 15:00:25 -0.00, -75.19 -0.62, -72.43 314.56 80
2 08/16/2020 03:24:29 -0.00, -75.17 -0.52, -77.61 277.79 80
3 08/18/2020 03:09:39 -0.00, -75.16 0.11, -74.66 56.81 80
4 08/20/2020 02:57:29 0.01, -75.15 0.73, -71.70 391.84 80
5 08/20/2020 15:21:25 0.00, -75.17 0.35, -76.86 192.71 80
6 08/22/2020 15:06:35 -0.00, -75.17 -0.25, -73.91 143.01 80
7 08/23/2020 03:30:40 -0.01, -75.15 -0.84, -79.10 448.87 80
8 08/24/2020 14:54:26 -0.00, -75.17 -0.91, -70.96 479.09 80
9 08/25/2020 03:18:30 -0.01, -75.16 -0.24, -76.14 112.71 80
10 08/27/2020 03:03:41 -0.00, -75.17 0.40, -73.20 223.78 80
11 08/27/2020 15:27:37 0.01, -75.18 0.70, -78.35 360.49 80
